Location: ????????
(55.4000°N, 39.1167°E)
Time: 04:31:19
(UTC+00:00)

Cosmos 1500 Rocket - Pass Details

Date: 19 May 2025
Orbit: 598 x 623 km, 82.5° (Epoch: 19 June)

Event Time Altitude Azimuth Distance (km) Brightness Sun altitude
Rises 21:07:45 0° 344° (NNW) 2,880 8.7 -14.6°
Reaches altitude 10° 21:10:01 10° 339° (NNW) 1,975 7.3 -14.6°
Maximum altitude 21:14:12 47° 266° (W) 818 4.1 -14.6°
Enters shadow 21:16:40 22° 203° (SSW) 1,338 4.7 -14.6°
